TimeCST,TemperatureF,Dew PointF,Humidity,Sea Level PressureIn,VisibilityMPH,Wind Direction,Wind SpeedMPH,Gust SpeedMPH,PrecipitationIn,Events,Conditions,WindDirDegrees,DateUTC
12:13 AM,5.0,-4.0,66,29.46,1.5,Calm,Calm,-,0.00,Snow,Light Snow,0,2014-01-26 06:13:00
12:48 AM,5.0,-4.0,66,29.44,2.0,East,4.6,-,0.00,Snow,Light Snow,80,2014-01-26 06:48:00
12:53 AM,5.0,-4.0,66,29.52,1.5,East,4.6,-,0.00,Snow,Light Snow,80,2014-01-26 06:53:00
1:03 AM,5.0,-4.0,66,29.44,1.2,ENE,5.8,-,0.00,Snow,Light Snow,60,2014-01-26 07:03:00
1:19 AM,5.0,-2.2,72,29.43,2.0,ENE,5.8,-,0.00,Snow,Light Snow,60,2014-01-26 07:19:00
1:40 AM,5.0,-2.2,72,29.43,1.5,ENE,4.6,-,0.00,Snow,Light Snow,70,2014-01-26 07:40:00
1:53 AM,5.0,-2.9,70,29.49,1.0,Variable,3.5,-,0.00,Snow,Light Snow,0,2014-01-26 07:53:00
1:56 AM,5.0,-2.2,72,29.40,0.8,East,4.6,-,0.00,Snow,Light Snow,90,2014-01-26 07:56:00
2:08 AM,5.0,-2.2,72,29.39,1.2,Variable,4.6,-,0.00,Snow,Light Snow,0,2014-01-26 08:08:00
2:17 AM,5.0,-2.2,72,29.39,1.5,Variable,3.5,-,0.00,Snow,Light Snow,0,2014-01-26 08:17:00
2:35 AM,5.0,-4.0,66,29.40,2.0,East,4.6,-,0.00,Snow,Light Snow,80,2014-01-26 08:35:00
2:44 AM,5.0,-2.2,72,29.41,2.5,ENE,4.6,-,0.00,Snow,Light Snow,70,2014-01-26 08:44:00
2:53 AM,5.0,-2.9,70,29.50,3.0,East,3.5,-,0.00,Snow,Light Snow,80,2014-01-26 08:53:00
3:48 AM,6.8,-2.2,67,29.39,7.0,East,3.5,-,0.00,,Overcast,100,2014-01-26 09:48:00
3:53 AM,5.0,-2.9,70,29.47,8.0,ESE,5.8,-,0.00,,Overcast,120,2014-01-26 09:53:00
4:53 AM,5.0,-4.0,66,29.47,9.0,SSW,3.5,-,N/A,,Overcast,200,2014-01-26 10:53:00
5:53 AM,5.0,-2.9,70,29.45,10.0,SSW,4.6,-,N/A,,Overcast,210,2014-01-26 11:53:00
6:19 AM,5.0,-2.2,72,29.37,5.0,WSW,6.9,-,0.00,Snow,Light Snow,240,2014-01-26 12:19:00
6:32 AM,5.0,-2.2,72,29.37,2.0,WSW,5.8,-,0.00,Snow,Light Snow,240,2014-01-26 12:32:00
6:50 AM,6.8,-2.2,67,29.36,3.0,SW,4.6,-,0.00,Snow,Light Snow,230,2014-01-26 12:50:00
6:53 AM,6.1,-2.9,67,29.45,4.0,SW,4.6,-,0.00,Snow,Light Snow,230,2014-01-26 12:53:00
7:10 AM,6.8,-2.2,67,29.34,8.0,SW,4.6,-,0.00,,Overcast,220,2014-01-26 13:10:00
7:53 AM,6.1,-0.9,73,29.42,4.0,WSW,9.2,-,0.00,,Haze,250,2014-01-26 13:53:00
8:35 AM,8.6,1.4,73,29.31,2.0,West,9.2,-,0.00,Snow,Light Snow,280,2014-01-26 14:35:00
8:45 AM,8.6,1.4,73,29.33,2.5,West,10.4,-,0.00,Snow,Light Snow,270,2014-01-26 14:45:00
8:53 AM,9.0,1.0,70,29.41,2.0,West,9.2,-,0.00,Snow,Light Snow,270,2014-01-26 14:53:00
9:06 AM,10.4,1.4,67,29.33,2.5,West,9.2,-,0.00,Snow,Light Snow,270,2014-01-26 15:06:00
9:14 AM,10.4,1.4,67,29.34,4.0,West,9.2,-,0.00,,Haze,280,2014-01-26 15:14:00
9:53 AM,10.9,1.9,67,29.42,7.0,West,12.7,19.6,0.00,,Mostly Cloudy,280,2014-01-26 15:53:00
10:34 AM,12.2,-0.4,57,29.35,2.0,WNW,18.4,27.6,0.00,Snow,Light Snow,290,2014-01-26 16:34:00
10:53 AM,12.0,-0.9,56,29.45,2.5,WNW,18.4,32.2,0.00,,Haze,300,2014-01-26 16:53:00
11:23 AM,12.2,-2.2,53,29.37,2.0,WNW,18.4,33.4,0.00,,Overcast,300,2014-01-26 17:23:00
11:38 AM,12.2,-2.2,53,29.38,1.5,WNW,21.9,34.5,0.00,Snow,Light Snow,300,2014-01-26 17:38:00
11:42 AM,10.4,-2.2,57,29.38,3.0,WNW,17.3,33.4,0.00,Snow,Light Snow,300,2014-01-26 17:42:00
11:50 AM,10.4,-2.2,57,29.39,1.5,WNW,23.0,34.5,0.00,,Scattered Clouds,290,2014-01-26 17:50:00
11:53 AM,10.9,-2.9,54,29.47,1.5,WNW,18.4,34.5,0.00,Snow,Light Snow,290,2014-01-26 17:53:00
12:44 PM,8.6,-5.8,52,29.41,1.2,WNW,20.7,33.4,0.00,Snow,Light Snow,300,2014-01-26 18:44:00
12:53 PM,9.0,-5.1,53,29.50,2.0,WNW,19.6,29.9,0.00,,Overcast,300,2014-01-26 18:53:00
1:06 PM,8.6,-5.8,52,29.43,1.2,WNW,24.2,32.2,0.00,,Overcast,290,2014-01-26 19:06:00
1:20 PM,8.6,-5.8,52,29.44,2.0,NW,21.9,29.9,0.00,,Overcast,310,2014-01-26 19:20:00
1:53 PM,8.1,-6.0,53,29.55,4.0,NW,18.4,29.9,0.00,,Haze,310,2014-01-26 19:53:00
2:04 PM,6.8,-7.6,52,29.48,1.8,NW,21.9,34.5,0.00,,Overcast,320,2014-01-26 20:04:00
2:17 PM,6.8,-7.6,52,29.49,1.0,NNW,25.3,34.5,0.00,Snow,Light Snow,330,2014-01-26 20:17:00
2:25 PM,6.8,-7.6,52,29.49,2.5,NW,18.4,32.2,0.00,,Mostly Cloudy,320,2014-01-26 20:25:00
2:53 PM,6.1,-8.0,53,29.62,1.8,NW,17.3,31.1,0.00,Snow,Light Snow,310,2014-01-26 20:53:00
2:59 PM,6.8,-7.6,52,29.53,2.5,NW,23.0,34.5,0.00,,Haze,310,2014-01-26 20:59:00
3:04 PM,6.8,-7.6,52,29.54,1.5,NW,24.2,35.7,0.00,,Overcast,310,2014-01-26 21:04:00
3:12 PM,5.0,-9.4,52,29.55,1.2,NW,24.2,34.5,0.00,,Overcast,310,2014-01-26 21:12:00
3:34 PM,5.0,-7.6,56,29.57,1.8,NW,19.6,31.1,0.00,,Overcast,320,2014-01-26 21:34:00
3:41 PM,5.0,-7.6,56,29.58,0.8,NW,25.3,33.4,0.00,Snow,Light Snow,310,2014-01-26 21:41:00
3:53 PM,3.9,-8.0,58,29.69,0.8,NW,25.3,35.7,0.00,Snow,Light Snow,320,2014-01-26 21:53:00
3:59 PM,3.2,-7.6,61,29.61,1.5,NW,18.4,33.4,0.00,,Overcast,320,2014-01-26 21:59:00
4:14 PM,3.2,-9.4,56,29.63,2.0,NW,23.0,31.1,0.00,,Overcast,320,2014-01-26 22:14:00
4:19 PM,3.2,-9.4,56,29.64,1.2,NW,25.3,32.2,0.00,,Overcast,310,2014-01-26 22:19:00
4:29 PM,3.2,-9.4,56,29.65,2.0,NW,21.9,32.2,0.00,,Overcast,320,2014-01-26 22:29:00
4:53 PM,3.0,-11.0,52,29.78,1.8,NNW,24.2,32.2,0.00,,Overcast,330,2014-01-26 22:53:00
5:03 PM,3.2,-9.4,56,29.70,3.0,NW,21.9,26.5,0.00,,Overcast,310,2014-01-26 23:03:00
5:14 PM,1.4,-9.4,61,29.71,1.8,NNW,24.2,33.4,0.00,,Overcast,330,2014-01-26 23:14:00
5:24 PM,1.4,-11.2,56,29.72,3.0,NW,17.3,28.8,0.00,,Overcast,320,2014-01-26 23:24:00
5:37 PM,1.4,-11.2,56,29.74,2.0,NW,26.5,33.4,0.00,Snow,Blowing Snow,320,2014-01-26 23:37:00
5:51 PM,1.4,-11.2,56,29.76,5.0,NW,18.4,28.8,0.00,,Overcast,320,2014-01-26 23:51:00
5:53 PM,1.0,-11.9,55,29.86,5.0,NW,20.7,28.8,0.00,,Overcast,320,2014-01-26 23:53:00
6:12 PM,1.4,-13.0,51,29.79,5.0,NW,18.4,28.8,0.00,,Overcast,320,2014-01-27 00:12:00
6:53 PM,-0.0,-13.0,54,29.93,4.0,NW,21.9,28.8,0.00,Snow,Blowing Snow,320,2014-01-27 00:53:00
7:01 PM,-0.4,-14.8,51,29.84,4.0,NW,21.9,28.8,0.00,,Partly Cloudy,320,2014-01-27 01:01:00
7:53 PM,-2.0,-15.0,54,29.99,5.0,NW,20.7,32.2,0.00,,Clear,320,2014-01-27 01:53:00
8:28 PM,-2.2,-16.6,50,29.91,4.0,NW,24.2,34.5,0.00,,Mostly Cloudy,320,2014-01-27 02:28:00
8:50 PM,-4.0,-18.4,50,29.93,2.5,NW,26.5,35.7,0.00,,Haze,320,2014-01-27 02:50:00
8:53 PM,-4.0,-18.0,51,30.04,2.0,NNW,24.2,35.7,0.00,,Haze,330,2014-01-27 02:53:00
9:05 PM,-5.8,-18.4,55,29.94,2.5,NNW,21.9,33.4,0.00,,Partly Cloudy,330,2014-01-27 03:05:00
9:15 PM,-5.8,-18.4,55,29.95,3.0,NW,19.6,31.1,0.00,,Haze,320,2014-01-27 03:15:00
9:22 PM,-5.8,-18.4,55,29.96,4.0,NNW,23.0,28.8,0.00,,Haze,330,2014-01-27 03:22:00
9:47 PM,-5.8,-18.4,55,29.97,2.5,NW,15.0,25.3,0.00,,Mostly Cloudy,320,2014-01-27 03:47:00
9:53 PM,-6.0,-17.0,59,30.08,1.8,NNW,15.0,24.2,0.00,Snow,Light Snow,330,2014-01-27 03:53:00
10:27 PM,-7.6,-18.4,59,29.99,3.0,NW,15.0,24.2,0.00,,Haze,310,2014-01-27 04:27:00
10:53 PM,-8.0,-20.9,53,30.12,4.0,NW,20.7,27.6,0.00,,Mostly Cloudy,320,2014-01-27 04:53:00
11:35 PM,-9.4,-22.0,54,30.04,7.0,NW,15.0,24.2,0.00,,Scattered Clouds,320,2014-01-27 05:35:00
11:53 PM,-9.9,-23.1,52,30.15,8.0,NW,15.0,-,0.00,,Mostly Cloudy,320,2014-01-27 05:53:00